Location: �quirre
(50.4736°N, 2.2351°E)
Time: 10:29:14
(UTC+00:00)

Cosmos 2151 Rocket - Pass Details

Date: 07 August 2020
Orbit: 618 x 641 km, 82.5° (Epoch: 21 September)

Event Time Altitude Azimuth Distance (km) Brightness Sun altitude
Exits shadow 01:12:30 55° 165° (SSE) 755 3.6 -21.2°
Maximum altitude 01:13:24 75° 98° (E) 649 3.6 -21.1°
Drops below altitude 10° 01:17:50 10° 13° (NNE) 2,000 7.3 -20.9°
Sets 01:20:04 0° 12° (NNE) 2,910 8.5 -20.7°
